Home   Weather   Bălți   Past weeks

Flag for Moldova Past Weather in Bălți, Moldova — Yesterday and Last 2 Weeks

Now
48 °F

Low clouds.


Feels Like: 45 °F
Forecast: 44 / 67 °F
Wind: 7 mph from Northwest

Location: Iasi Airport

Current Time: Apr 30, 2017 at 4:25:07 am

Latest Report: Apr 30, 2017 at 3:30 am


Visibility: N/A

Pressure: 29.98 "Hg

Humidity: 87%

Dew Point: 45 °F

Location of BălțiLocation

Past Weather in Bălți — Graph

°F

Bălți Temperature Yesterday

Maximum temperature yesterday: 77 °F (at 2:00 pm)
Minimum temperature yesterday: 52 °F (at 6:00 am)
Average temperature yesterday: 62 °F

High & Low Weather Summary for the Past Weeks

 TemperatureHumidityPressure
High77 °F (Apr 29, 2:00 pm)93% (Apr 20, 8:30 am)30.15 "Hg (Apr 20, 8:30 am)
Low32 °F (Apr 20, 8:30 am)24% (Apr 18, 3:30 pm)29.74 "Hg (Apr 16, 3:30 pm)
Average49 °F57%29.97 "Hg
* Reported Apr 15 3:00 am — Apr 30 3:00 am, Bălți, Weather by CustomWeather, © 2017

Note: Actual official high and low records may vary slightly from our data, if they occured in-between our weather recording intervals... More about our weather records

Advertising

Bălți Weather History for the Previous 24 Hours

Scroll right to see more
 ConditionsComfort  
Time TempWeatherWind HumidityBarometerVisibility
3:00 am
Sun, Apr 30
48 °FLow clouds.7 mph87%29.98 "HgN/A
2:30 am50 °FMostly cloudy.7 mph82%29.98 "HgN/A
2:00 am50 °FMostly cloudy.7 mph82%29.98 "HgN/A
1:30 am50 °FMostly cloudy.8 mph82%30.01 "HgN/A
1:00 am50 °FPassing clouds.9 mph82%30.01 "HgN/A
12:30 am50 °FPassing clouds.9 mph82%30.01 "HgN/A
12:00 am50 °FPassing clouds.9 mph82%29.98 "HgN/A
11:30 pm
Sat, Apr 29
52 °FPassing clouds.9 mph82%29.98 "HgN/A
10:30 pm52 °FPassing clouds.9 mph88%29.98 "HgN/A
10:00 pm54 °FPassing clouds.8 mph82%29.98 "HgN/A
9:30 pm54 °FPassing clouds.8 mph82%29.98 "HgN/A
9:00 pm54 °FPassing clouds.15 mph82%29.95 "HgN/A
8:30 pm57 °FPassing clouds.9 mph82%29.95 "HgN/A
8:00 pm59 °FLight rain. Clear.13 mph88%29.92 "HgN/A
7:30 pm61 °FSunny.9 mph83%29.92 "Hg10 mi
7:00 pm64 °FPassing clouds.3 mph73%29.92 "HgN/A
6:30 pm64 °FSunny.5 mph73%29.89 "Hg10 mi
6:00 pm66 °FSprinkles. Passing clouds.3 mph64%29.92 "HgN/A
5:30 pm68 °FSprinkles. Passing clouds.6 mph53%29.92 "HgN/A
5:00 pm73 °FPassing clouds.7 mph36%29.89 "HgN/A
3:30 pm77 °FSunny.14 mph36%29.83 "Hg10 mi
3:00 pm77 °FSunny.16 mph36%29.83 "Hg10 mi
2:30 pm77 °FSunny.16 mph34%29.83 "Hg10 mi
2:00 pm77 °FSunny.16 mph34%29.86 "Hg10 mi
1:30 pm73 °FSunny.14 mph38%29.86 "Hg10 mi
1:00 pm72 °FSunny.17 mph38%29.86 "Hg10 mi
12:30 pm70 °FSunny.18 mph40%29.86 "Hg10 mi
12:00 pm70 °FSunny.17 mph40%29.86 "Hg10 mi
11:30 am66 °FSunny.17 mph43%29.86 "Hg10 mi
10:30 am64 °FSunny.15 mph40%29.86 "Hg10 mi
10:00 am63 °FSunny.16 mph42%29.86 "Hg10 mi
9:30 am59 °FSunny.16 mph48%29.86 "Hg10 mi
9:00 am59 °FSunny.15 mph48%29.86 "Hg10 mi
8:30 am57 °FSunny.15 mph48%29.86 "Hg10 mi
8:00 am55 °FSunny.14 mph51%29.86 "Hg10 mi
7:30 am54 °FSunny.13 mph51%29.86 "Hg10 mi
7:00 am52 °FSunny.9 mph54%29.86 "Hg10 mi
6:00 am52 °FSunny.12 mph50%29.83 "Hg10 mi
5:00 am54 °FPassing clouds.13 mph47%29.83 "HgN/A
4:00 am54 °FClear.13 mph47%29.83 "Hg10 mi
Weather by CustomWeather, © 2017

See weather overviewHow to use our weather pages